[[{"header":{"parameterUnit":"m.s-1","parameterCategory":1,"la1":30.2991,"la2":30.254,"lo1":-89.0895,"lo2":-89.0444,"dy":0.0017,"dx":0.0017,"nx":28,"ny":28,"refTime":"2025-08-01T21:00:00:Z","depth":0,"parameterNumber":2,"parameterNumberName":"U-component_of_WINDS"},"data":[0,0,0,0,0,0,0,0,0,0,0,0,0,0,0,0,0,0,0,0,0,0,0,0,0,0,0,0,0,0,0,0,0,0,0,0,0,0,0,0,0,0,0,0,0,0,0,0,0,0,0,0,0,0,0,0,0,0,2.9587,2.9588,0,2.964,2.9641,2.9641,2.9563,2.956,2.9558,2.9555,2.961,2.9614,2.9618,0,0,0,0,0,0,0,0,0,0,0,0,0,2.9419,2.9423,2.9587,2.9588,2.9589,2.964,2.9641,2.9642,2.9564,2.956,2.9557,2.9554,2.9609,2.9613,2.9618,0,0,0,0,0,0,0,0,0,0,0,0,0,2.9484,2.9424,2.9587,2.9556,2.9554,2.964,2.9641,2.9642,2.9564,2.956,2.9556,2.9552,2.9607,2.9613,2.9619,2.9739,0,0,2.9637,2.964,0,0,0,0,0,0,0,0,2.9481,2.949,2.956,2.9558,2.9556,2.9591,2.9602,2.9674,2.9565,2.956,2.9555,2.955,2.9607,2.9613,2.9632,2.9741,2.9744,2.9638,2.9642,2.9644,2.9646,0,0,0,0,0,0,0,2.9476,2.9488,2.9608,2.9561,2.9558,2.9539,2.9544,2.9615,2.9606,2.956,2.9555,2.9562,2.9605,2.9626,2.9632,2.9744,2.9638,2.9643,2.9647,2.9649,2.9954,2.9958,0,0,0,0,0,0,2.9475,2.9484,2.9606,2.961,2.9507,2.9546,2.9551,2.9584,2.9605,2.9604,2.9566,2.9558,2.9618,2.9626,2.9634,2.9774,2.9644,2.965,2.9653,2.9949,2.9955,2.996,0,0,0,0,0,0,2.9472,2.9487,2.9604,2.9546,2.9559,2.9553,2.959,2.9587,2.9608,2.9609,2.9607,2.9589,2.9615,2.9626,2.9713,2.9775,2.9652,2.9658,2.9944,2.9951,2.9957,3.0057,0,0,0,0,0,0,2.9468,2.9486,2.9531,2.9547,2.9563,2.9682,2.9594,2.9591,2.9618,2.9609,2.963,2.963,2.9613,2.9704,2.9719,2.9781,2.9663,2.9939,2.9947,2.9955,3.0048,3.0066,3.0081,0,0,0,0,0,2.9462,2.9558,2.9534,2.9549,2.9619,2.9686,2.9695,2.9673,2.9624,2.9669,2.967,2.9629,2.9767,2.9714,2.973,2.9795,2.9934,2.9945,2.9955,3.004,3.0062,3.0081,0,0,0,0,0,0,2.9549,2.9559,2.9533,2.9637,2.9661,2.9673,2.9729,2.9697,2.9736,2.9726,2.9698,2.9703,2.9796,2.9805,2.9746,2.9911,2.9842,2.9856,2.9902,2.9923,2.994,2.9935,2.9668,0,0,0,0,0,2.9581,2.9634,2.964,2.9731,2.9745,2.9735,2.9763,2.9745,2.9769,2.9779,2.9786,2.9811,2.986,2.9892,2.9937,3.005,3.0052,3.0102,3.0119,3.0133,3.0144,3.0203,3.0225,2.9993,2.9993,2.9993,0,0,2.9646,2.9658,2.9693,2.9749,2.9765,2.9821,2.9744,2.9807,2.9848,2.9788,2.987,2.9877,2.9903,3.0003,3.0048,3.0013,3.0209,3.0146,3.0157,3.0161,3.0216,3.0238,3.0257,3.0,2.9998,2.9997,0,0,2.9792,2.9808,2.9884,2.9903,2.9929,2.9922,2.9941,2.9958,2.9959,3.0042,2.9998,3.0047,3.0132,3.0152,3.0173,3.0329,3.0293,3.0345,3.0432,3.049,3.0508,3.0524,3.0578,3.0598,3.0357,3.0357,3.0357,0,2.9869,2.9952,2.9928,2.9993,3.0019,2.9968,3.0045,3.0064,3.0104,3.0123,3.0084,3.0189,3.0204,3.0307,3.0345,3.0365,3.0384,3.0341,3.0507,3.0523,3.0538,3.0589,3.0609,3.0363,3.0363,3.0362,3.0361,0,3.0045,3.0103,3.0162,3.0201,3.0233,3.0305,3.0292,3.0328,3.0307,3.0304,3.0389,3.0404,3.0451,3.0475,3.0455,3.0576,3.0553,3.0512,3.0441,3.0566,3.0614,3.0633,3.0372,3.037,3.0368,3.0366,0,0,3.0245,3.0271,3.0293,3.031,3.0336,3.038,3.045,3.0495,3.0526,3.0556,3.0613,3.0686,3.0648,3.0672,3.0655,3.0706,3.0826,3.0658,3.0658,3.0687,3.0959,3.0988,3.1011,3.0804,3.0807,3.081,3.0956,0,3.039,3.0508,3.0489,3.0604,3.0657,3.0611,3.0671,3.0693,3.0694,3.0738,3.0739,3.079,3.0737,3.0751,3.08,3.0801,3.088,3.0791,3.0855,3.0857,3.0847,3.1036,3.1067,3.1203,3.0974,3.0977,3.098,0,3.0573,3.0609,3.073,3.0747,3.0768,3.0823,3.0863,3.0907,3.0932,3.0928,3.0957,3.093,3.0999,3.093,3.1024,3.0964,3.099,3.0995,3.0999,3.1002,3.0924,3.1042,3.1247,3.1266,3.1009,3.1007,3.1005,0,3.0705,3.0784,3.0866,3.0882,3.0905,3.0944,3.0956,3.0977,3.1005,3.1041,3.1059,3.1103,3.1127,3.1161,3.1147,3.1098,3.1244,3.1174,3.1242,3.1243,3.1273,3.1271,3.1482,3.1294,3.1294,3.1293,3.1293,0,3.0866,3.0941,3.0925,3.0975,3.1057,3.1036,3.1118,3.1124,3.1143,3.1194,3.1157,3.1206,3.1185,3.1232,3.1222,3.1301,3.1313,3.1311,3.1307,3.1313,3.1313,3.1327,3.1317,3.1299,3.1297,3.1296,3.1295,0,3.1026,3.1018,3.1104,3.1119,3.1125,3.1185,3.1197,3.1244,3.1243,3.1307,3.1321,3.1318,3.1371,3.1361,3.1421,3.1414,3.1512,3.1498,3.1503,3.1499,3.1567,3.156,3.1793,3.1822,3.1617,3.1619,3.1621,0,3.1128,3.1184,3.1206,3.1237,3.1251,3.1302,3.1331,3.1313,3.1344,3.1377,3.142,3.1471,3.1509,3.1597,3.16,3.1645,3.163,3.1709,3.1637,3.1641,3.1629,3.1625,3.163,3.1722,3.1725,3.1727,3.1728,0,3.1309,3.1303,3.1346,3.1389,3.1425,3.1457,3.1486,3.1514,3.1498,3.1536,3.159,3.162,3.1681,3.1731,3.1773,3.1785,3.1754,3.1752,3.1769,3.1774,3.1775,3.1773,3.154,3.1745,3.1744,3.1743,3.1742,3.1741,3.1442,3.1489,3.1512,3.1561,3.1581,3.161,3.1654,3.1658,3.1703,3.175,3.1737,3.1798,3.1822,3.1876,3.1893,3.194,3.1911,3.1937,3.1944,3.195,3.1957,3.1769,3.1948,3.1948,3.1947,3.1947,3.1947,0,3.1619,3.1632,3.1678,3.1719,3.1759,3.1727,3.1758,3.1793,3.1847,3.1872,3.1911,3.1973,3.2022,3.203,3.2076,3.2112,3.2099,3.2125,3.2121,3.2124,3.1982,3.196,3.2135,3.2135,3.2135,3.2134,3.2134,3.2134,3.1716,3.1795,3.1791,3.188,3.1892,3.1951,3.1971,3.1997,3.2017,3.2088,3.2128,3.2133,3.2151,3.2198,3.2241,3.2242,3.226,3.2291,3.2286,3.2153,3.2134,3.2116,3.2096,3.2295,3.2296,3.2424,3.2425,3.2426]},{"header":{"parameterUnit":"m.s-1","parameterCategory":1,"la1":30.2991,"la2":30.254,"lo1":-89.0895,"lo2":-89.0444,"dy":0.0017,"dx":0.0017,"nx":28,"ny":28,"refTime":"2025-08-01T21:00:00:Z","depth":0,"parameterNumber":3,"parameterNumberName":"V-component_of_WINDS"},"data":[0,0,0,0,0,0,0,0,0,0,0,0,0,0,0,0,0,0,0,0,0,0,0,0,0,0,0,0,0,0,0,0,0,0,0,0,0,0,0,0,0,0,0,0,0,0,0,0,0,0,0,0,0,0,0,0,0,0,2.2043,2.2043,0,2.2071,2.2071,2.2071,2.2028,2.2027,2.2025,2.2024,2.205,2.2052,2.2054,0,0,0,0,0,0,0,0,0,0,0,0,0,2.1951,2.1953,2.2043,2.2043,2.2044,2.2071,2.2071,2.2071,2.2028,2.2027,2.2025,2.2023,2.2049,2.2052,2.2054,0,0,0,0,0,0,0,0,0,0,0,0,0,2.1986,2.1953,2.2043,2.2026,2.2024,2.2071,2.2071,2.2071,2.2029,2.2027,2.2024,2.2022,2.2049,2.2052,2.2055,2.2119,0,0,2.2064,2.2066,0,0,0,0,0,0,0,0,2.1984,2.1989,2.2028,2.2027,2.2026,2.2044,2.2048,2.2087,2.2029,2.2027,2.2024,2.2021,2.205,2.2053,2.2063,2.212,2.2121,2.2065,2.2067,2.2068,2.2069,0,0,0,0,0,0,0,2.1982,2.1988,2.2054,2.2028,2.2027,2.2016,2.2018,2.2055,2.205,2.2027,2.2024,2.2028,2.2049,2.206,2.2063,2.2122,2.2065,2.2067,2.2069,2.2071,2.2232,2.2234,0,0,0,0,0,0,2.1982,2.1986,2.2053,2.2055,2.1999,2.2019,2.2022,2.204,2.205,2.2049,2.203,2.2026,2.2055,2.2059,2.2064,2.2138,2.2068,2.2071,2.2073,2.2229,2.2232,2.2235,0,0,0,0,0,0,2.198,2.1988,2.2052,2.202,2.2027,2.2023,2.2044,2.2042,2.2053,2.2052,2.2051,2.2042,2.2054,2.2059,2.2105,2.2139,2.2072,2.2075,2.2226,2.223,2.2233,2.2289,0,0,0,0,0,0,2.1977,2.1988,2.2013,2.2021,2.2029,2.2094,2.2046,2.2044,2.2059,2.2054,2.2063,2.2063,2.2052,2.2101,2.2108,2.2142,2.2078,2.2223,2.2228,2.2232,2.2284,2.2294,2.2303,0,0,0,0,0,2.1974,2.2027,2.2014,2.2022,2.206,2.2096,2.2101,2.2088,2.2062,2.2086,2.2085,2.2062,2.2134,2.2106,2.2114,2.2149,2.2221,2.2227,2.2232,2.228,2.2292,2.2302,0,0,0,0,0,0,2.2022,2.2028,2.2013,2.207,2.2083,2.2089,2.2119,2.2102,2.2122,2.2116,2.2099,2.2102,2.2151,2.2155,2.2123,2.2211,2.2173,2.218,2.2207,2.2218,2.2227,2.2225,2.208,0,0,0,0,0,2.204,2.2069,2.2072,2.2122,2.2129,2.2123,2.2139,2.2128,2.214,2.2145,2.2148,2.216,2.2185,2.2202,2.2225,2.2285,2.2285,2.2313,2.2322,2.2329,2.2336,2.2366,2.2378,2.2252,2.2252,2.2252,0,0,2.2076,2.2082,2.2102,2.2132,2.214,2.217,2.2128,2.2162,2.2184,2.215,2.2193,2.2196,2.2208,2.2261,2.2285,2.2266,2.2371,2.2336,2.2342,2.2344,2.2373,2.2385,2.2396,2.2256,2.2255,2.2255,0,0,2.2156,2.2165,2.2207,2.2216,2.223,2.2226,2.2236,2.2244,2.2245,2.2288,2.2263,2.2289,2.2333,2.2342,2.2353,2.2437,2.2416,2.2445,2.2492,2.2523,2.2533,2.2541,2.257,2.2581,2.2451,2.2451,2.2451,0,2.2199,2.2244,2.2231,2.2266,2.228,2.2251,2.2293,2.2303,2.2323,2.2333,2.2311,2.2365,2.2372,2.2426,2.2446,2.2456,2.2466,2.2443,2.2532,2.2541,2.2549,2.2576,2.2587,2.2455,2.2454,2.2454,2.2453,0,2.2296,2.2327,2.2359,2.238,2.2397,2.2436,2.2427,2.2446,2.2434,2.2432,2.2476,2.2483,2.2506,2.2518,2.2507,2.2571,2.2559,2.2535,2.2497,2.2564,2.259,2.26,2.2459,2.2458,2.2457,2.2456,0,0,2.2407,2.242,2.2432,2.2441,2.2454,2.2477,2.2514,2.2538,2.2554,2.2569,2.2598,2.2636,2.2614,2.2626,2.2616,2.2642,2.2707,2.2615,2.2615,2.2631,2.2777,2.2794,2.2807,2.2694,2.2696,2.2697,2.2776,0,2.2487,2.2551,2.254,2.2602,2.263,2.2603,2.2635,2.2646,2.2645,2.2668,2.2666,2.2693,2.2663,2.267,2.2695,2.2694,2.2736,2.2688,2.272,2.2722,2.2718,2.282,2.2839,2.2912,2.2786,2.2787,2.2789,0,2.2589,2.2608,2.2673,2.2681,2.2692,2.2721,2.2741,2.2764,2.2776,2.2773,2.2786,2.277,2.2806,2.2767,2.2816,2.2784,2.2796,2.2797,2.28,2.2802,2.2759,2.2824,2.2936,2.2947,2.2804,2.2803,2.2802,0,2.2662,2.2704,2.2748,2.2757,2.2767,2.2788,2.2793,2.2803,2.2817,2.2835,2.2844,2.2865,2.2877,2.2893,2.2883,2.2856,2.2933,2.2894,2.2931,2.2931,2.2948,2.2947,2.3062,2.2957,2.2957,2.2957,2.2956,0,2.2752,2.2793,2.2782,2.2809,2.2853,2.284,2.2884,2.2885,2.2894,2.292,2.2898,2.2923,2.2909,2.2932,2.2924,2.2965,2.2971,2.2969,2.2966,2.297,2.297,2.2978,2.2972,2.296,2.2959,2.2958,2.2958,0,2.2842,2.2836,2.2882,2.2889,2.2891,2.2923,2.2928,2.2953,2.295,2.2984,2.2991,2.2986,2.3012,2.3004,2.3033,2.3027,2.3079,2.307,2.3075,2.3073,2.311,2.3106,2.3233,2.3249,2.3135,2.3136,2.3137,0,2.2899,2.293,2.2939,2.2956,2.2963,2.2989,2.3004,2.2992,2.3008,2.3023,2.3046,2.3071,2.309,2.3133,2.3132,2.3153,2.3144,2.3187,2.3147,2.3151,2.3144,2.3142,2.3145,2.3195,2.3196,2.3198,2.3198,0,2.3001,2.2997,2.302,2.3041,2.306,2.3076,2.309,2.3105,2.3093,2.3112,2.314,2.3155,2.3184,2.3208,2.3228,2.3232,2.3213,2.3211,2.3221,2.3225,2.3227,2.3226,2.3096,2.3208,2.3207,2.3206,2.3206,2.3206,2.3076,2.3102,2.3112,2.3138,2.3148,2.3161,2.3185,2.3185,2.3208,2.3231,2.3222,2.3253,2.3263,2.3287,2.3294,2.3317,2.3301,2.3315,2.3318,2.3322,2.3326,2.3224,2.3321,2.3321,2.332,2.332,2.332,0,2.3176,2.3182,2.3206,2.3226,2.3247,2.3228,2.3242,2.326,2.3288,2.3299,2.3319,2.3349,2.3373,2.3373,2.3395,2.3414,2.3406,2.342,2.3418,2.3419,2.334,2.3329,2.3426,2.3426,2.3426,2.3426,2.3426,2.3426,2.3231,2.3273,2.327,2.3316,2.3321,2.3352,2.3362,2.3374,2.3383,2.3419,2.3438,2.3439,2.3445,2.3467,2.3488,2.3487,2.3496,2.3513,2.3509,2.3435,2.3425,2.3415,2.3405,2.3515,2.3516,2.3586,2.3587,2.3587]}]]